STARLINK-11646, 63186

Orbit data source: Space-Track

STARLINK-11646, 63186 is a payload satellite owned by SpaceX/Seattle (US) in LEO that was launched on Thu, 13 Mar 2025 UTC via an FALCON 9 launch vehicle from the Air Force Eastern Test Range (AFETR). Payload-class satellites include a variety of spacecraft equipped with specific instruments for various scientific and technological missions. These include communications satellites like Starlink; space stations such as the ISS; scientific satellites like the Hubble; Earth observation satellites from companies like Planet Labs, Umbra, and HawkEye 360; GPS; miniature CubeSats for education and research; and military/defense satellites.

Loading next visibility...
Identifier
63186, 2025-048D
Orbit
LEO
Country
Flag of USUS
Related business
Manufacturer
SpaceX/Seattle
Mission
Operational Commercial Communications
Bus & Motor
STARLINK V2MD, Unknown motor
Mass
960 kg wet, ~910 kg dry
Launch date (UTC)
2025-03-13 (1 year ago)
Launch vehicle
FALCON 9
Launch site
Air Force Eastern Test Range (AFETR)
Object type
Payload
Rocket body
Debris
Shape & HBR
Box + 2 Pan, 18.1 m
Radar Cross Section
36.964 m², Large (>1 m²)

Expand to show TLE details & history
Last TLE update: 19 hours ago

TLE from 19 hours ago
0 STARLINK-11646
1 63186U 25048D   26171.04877996  .00220276  00000-0  16664-2 0  9994
2 63186  43.0012  62.5472 0003120 254.0963 105.9561 15.70961278 74629
Epoch: 2026-06-20T01:10Z
TLE epoch observation values (Epoch: 2026-06-20T01:10:14.588Z)
Latitude
-0.00002°
Longitude
136.71741°
Altitude
356.498 km
Speed
7.697 km/s
True Right ascension
04h 10m 11s
True Declination
0° 00' 00"
Sunlit
Object was in daylight at epoch
Visualization orbit readout
Latitude
Unknown
Longitude
Unknown
Altitude
Unknown
Speed
Unknown
Apparent Right ascension
Unknown
Apparent Declination
Unknown
Sunlit
N/A
Visualization observer readout
Local Sidereal Time
07:21:02
Azimuth
Unknown
Elevation
Unknown
Doppler factor
Unknown
Orbital elements
Apogee altitude
360.232 km
Perigee altitude
356.028 km
Semi-major axis
6,736.267 km
Eccentricity
0.00031
Inclination
43.0012°
RAAN
62.5472°
Arg. of periapsis
254.0963°
True anomaly
105.99047°
Mean anomaly
105.9561°
Eccentric anomaly
105.97329°
Mean motion
3.92567 °/min
Orbital period
91.7 mins
BSTAR
0.0016664
Loading maneuver chart data...
Computing Atmospheric mass density...
Loading historical data...
Loading historical data...
Loading historical data...
Loading historical data...
Loading historical data...
Loading historical data...
Loading historical data...

Documentation

Showing up to 5 results
|